• In Uzbekistan
  • List of Countries
  • For 7 days
  • Water Temperature
  • Satellite Maps
  • Weather Map
  • Weather Widgets
  • user-avatar
    Login

    Hourly Weather Juwaja

    Today, 26 September, Wednesday

    Time Temperature Precipitation Wind Pressure Humidity
    00:00 +25°C° 0 mm 1 mps 735 mmHg 86%
    01:00 +25°C° 0 mm 1 mps 735 mmHg 87%
    02:00 +24°C° 0 mm 1 mps 735 mmHg 89%
    03:00 +24°C° 0 mm 1 mps 735 mmHg 89%
    04:00 +24°C° 0 mm 1 mps 735 mmHg 90%
    05:00 +23°C° 0 mm 1 mps 735 mmHg 90%
    06:00 +25°C° 0 mm 1 mps 735 mmHg 82%
    07:00 +26°C° 0 mm 2 mps 735 mmHg 74%
    08:00 +28°C° 0 mm 2 mps 735 mmHg 64%
    09:00 +29°C° 0 mm 2 mps 735 mmHg 57%
    10:00 +30°C° 0 mm 3 mps 735 mmHg 50%
    11:00 +33°C° 0 mm 3 mps 735 mmHg 44%
    12:00 +33°C° 0 mm 3 mps 735 mmHg 44%
    13:00 +33°C° 0 mm 4 mps 735 mmHg 44%
    14:00 +33°C° 0 mm 4 mps 735 mmHg 44%
    15:00 +32°C° 0 mm 4 mps 735 mmHg 49%
    16:00 +30°C° 0 mm 3 mps 734 mmHg 53%
    17:00 +29°C° 0 mm 3 mps 734 mmHg 58%
    18:00 +28°C° 0 mm 3 mps 735 mmHg 62%
    19:00 +27°C° 0 mm 2 mps 735 mmHg 67%
    20:00 +26°C° 0 mm 2 mps 735 mmHg 72%
    21:00 +26°C° 0 mm 1 mps 735 mmHg 75%
    22:00 +25°C° 0 mm 1 mps 735 mmHg 78%
    23:00 +25°C° 0 mm 1 mps 735 mmHg 80%

    Tomorrow, 27 September, Thursday

    Time Temperature Precipitation Wind Pressure Humidity
    00:00 +25°C° 0 mm 1 mps 735 mmHg 82%
    01:00 +24°C° 0 mm 1 mps 735 mmHg 83%
    02:00 +24°C° 0 mm 1 mps 735 mmHg 85%
    03:00 +23°C° 0 mm 1 mps 735 mmHg 86%
    04:00 +21°C° 0 mm 0 mps 735 mmHg 87%
    05:00 +21°C° 0 mm 0 mps 735 mmHg 88%
    06:00 +22°C° 0 mm 0 mps 736 mmHg 79%
    07:00 +26°C° 0 mm 1 mps 736 mmHg 71%
    08:00 +27°C° 0 mm 1 mps 737 mmHg 62%
    09:00 +28°C° 0 mm 1 mps 737 mmHg 54%
    10:00 +30°C° 0 mm 2 mps 737 mmHg 46%
    11:00 +31°C° 0 mm 2 mps 737 mmHg 38%
    12:00 +32°C° 0 mm 2 mps 737 mmHg 38%
    13:00 +33°C° 0 mm 3 mps 737 mmHg 38%
    14:00 +34°C° 0 mm 3 mps 737 mmHg 38%
    15:00 +33°C° 0 mm 3 mps 736 mmHg 44%
    16:00 +31°C° 0 mm 3 mps 736 mmHg 49%
    17:00 +30°C° 0 mm 3 mps 736 mmHg 55%
    18:00 +29°C° 0 mm 3 mps 737 mmHg 60%
    19:00 +28°C° 0 mm 2 mps 737 mmHg 66%
    20:00 +27°C° 0 mm 2 mps 737 mmHg 72%
    21:00 +27°C° 0 mm 2 mps 737 mmHg 73%
    22:00 +26°C° 0 mm 1 mps 737 mmHg 74%
    23:00 +26°C° 0 mm 1 mps 737 mmHg 76%

    Day after tomorrow, 28 September, Friday

    Time Temperature Precipitation Wind Pressure Humidity
    00:00 +26°C° 0 mm 1 mps 737 mmHg 77%
    01:00 +25°C° 0 mm 1 mps 737 mmHg 78%
    02:00 +25°C° 0 mm 1 mps 737 mmHg 79%
    03:00 +24°C° 0 mm 1 mps 737 mmHg 77%
    04:00 +24°C° 0 mm 1 mps 737 mmHg 75%
    05:00 +24°C° 0 mm 1 mps 737 mmHg 73%
    06:00 +26°C° 0 mm 1 mps 737 mmHg 62%
    07:00 +28°C° 0 mm 1 mps 738 mmHg 51%
    08:00 +30°C° 0 mm 1 mps 738 mmHg 39%
    09:00 +31°C° 0 mm 1 mps 738 mmHg 34%
    10:00 +34°C° 0 mm 2 mps 738 mmHg 28%
    11:00 +35°C° 0 mm 2 mps 738 mmHg 22%
    12:00 +36°C° 0 mm 3 mps 738 mmHg 24%
    13:00 +36°C° 0 mm 3 mps 737 mmHg 26%
    14:00 +36°C° 0 mm 4 mps 737 mmHg 27%
    15:00 +35°C° 0 mm 4 mps 737 mmHg 32%
    16:00 +34°C° 0 mm 4 mps 737 mmHg 37%
    17:00 +33°C° 0 mm 4 mps 736 mmHg 42%
    18:00 +31°C° 0 mm 3 mps 737 mmHg 49%
    19:00 +30°C° 0 mm 3 mps 737 mmHg 56%
    20:00 +28°C° 0 mm 2 mps 738 mmHg 63%
    21:00 +28°C° 0 mm 2 mps 738 mmHg 63%
    22:00 +27°C° 0 mm 2 mps 738 mmHg 62%
    23:00 +27°C° 0 mm 2 mps 737 mmHg 62%

    29 September, Saturday

    Time Temperature Precipitation Wind Pressure Humidity
    00:00 +27°C° 0 mm 2 mps 737 mmHg 62%
    01:00 +26°C° 0 mm 2 mps 737 mmHg 62%
    02:00 +26°C° 0 mm 2 mps 737 mmHg 62%
    03:00 +26°C° 0 mm 1 mps 737 mmHg 60%
    04:00 +25°C° 0 mm 1 mps 737 mmHg 58%
    05:00 +25°C° 0 mm 1 mps 737 mmHg 56%
    06:00 +27°C° 0 mm 1 mps 737 mmHg 47%
    07:00 +29°C° 0 mm 1 mps 737 mmHg 39%
    08:00 +31°C° 0 mm 1 mps 738 mmHg 31%
    09:00 +33°C° 0 mm 1 mps 737 mmHg 27%
    10:00 +35°C° 0 mm 2 mps 737 mmHg 24%
    11:00 +37°C° 0 mm 2 mps 737 mmHg 20%
    12:00 +37°C° 0 mm 3 mps 737 mmHg 20%
    13:00 +38°C° 0 mm 3 mps 736 mmHg 20%
    14:00 +38°C° 0 mm 4 mps 736 mmHg 20%
    15:00 +37°C° 0 mm 4 mps 736 mmHg 22%
    16:00 +37°C° 0 mm 4 mps 736 mmHg 25%
    17:00 +36°C° 0 mm 4 mps 735 mmHg 27%
    18:00 +35°C° 0 mm 4 mps 736 mmHg 29%
    19:00 +33°C° 0 mm 3 mps 736 mmHg 31%
    20:00 +31°C° 0 mm 3 mps 736 mmHg 33%
    21:00 +31°C° 0 mm 3 mps 736 mmHg 32%
    22:00 +31°C° 0 mm 3 mps 736 mmHg 30%
    23:00 +30°C° 0 mm 2 mps 736 mmHg 28%

    30 September, Sunday

    Time Temperature Precipitation Wind Pressure Humidity
    00:00 +30°C° 0 mm 2 mps 736 mmHg 27%
    01:00 +30°C° 0 mm 2 mps 736 mmHg 26%
    02:00 +30°C° 0 mm 2 mps 735 mmHg 25%
    03:00 +30°C° 0 mm 2 mps 735 mmHg 25%
    04:00 +29°C° 0 mm 2 mps 736 mmHg 26%
    05:00 +29°C° 0 mm 2 mps 736 mmHg 26%
    06:00 +31°C° 0 mm 2 mps 736 mmHg 24%
    07:00 +32°C° 0 mm 2 mps 736 mmHg 23%
    08:00 +35°C° 0 mm 3 mps 736 mmHg 21%
    09:00 +36°C° 0 mm 3 mps 736 mmHg 21%
    10:00 +37°C° 0 mm 3 mps 736 mmHg 20%
    11:00 +38°C° 0 mm 4 mps 736 mmHg 19%
    12:00 +38°C° 0 mm 4 mps 735 mmHg 21%
    13:00 +39°C° 0 mm 5 mps 735 mmHg 22%
    14:00 +39°C° 0 mm 5 mps 735 mmHg 24%
    15:00 +37°C° 0 mm 5 mps 735 mmHg 29%
    16:00 +35°C° 0 mm 5 mps 735 mmHg 33%
    17:00 +34°C° 0 mm 5 mps 735 mmHg 38%
    18:00 +33°C° 0 mm 4 mps 735 mmHg 43%
    19:00 +31°C° 0 mm 3 mps 736 mmHg 47%
    20:00 +30°C° 0 mm 3 mps 736 mmHg 52%
    21:00 +30°C° 0 mm 3 mps 736 mmHg 54%
    22:00 +29°C° 0 mm 3 mps 736 mmHg 57%
    23:00 +29°C° 0 mm 3 mps 736 mmHg 60%

    1 October, Monday

    Time Temperature Precipitation Wind Pressure Humidity
    00:00 +28°C° 0 mm 3 mps 736 mmHg 63%
    01:00 +28°C° 0 mm 3 mps 736 mmHg 67%
    02:00 +27°C° 0 mm 3 mps 736 mmHg 71%
    03:00 +27°C° 0 mm 3 mps 736 mmHg 73%
    04:00 +27°C° 0 mm 2 mps 736 mmHg 75%
    05:00 +26°C° 0 mm 2 mps 736 mmHg 77%
    06:00 +27°C° 0 mm 2 mps 736 mmHg 72%
    07:00 +28°C° 0 mm 2 mps 737 mmHg 68%
    08:00 +28°C° 0 mm 2 mps 737 mmHg 64%
    09:00 +30°C° 0 mm 2 mps 737 mmHg 56%
    10:00 +31°C° 0 mm 3 mps 736 mmHg 48%
    11:00 +34°C° 0 mm 3 mps 736 mmHg 40%
    12:00 +34°C° 0 mm 3 mps 736 mmHg 40%
    13:00 +34°C° 0 mm 4 mps 736 mmHg 40%
    14:00 +34°C° 0 mm 4 mps 735 mmHg 40%
    15:00 +33°C° 0 mm 4 mps 735 mmHg 44%
    16:00 +31°C° 0 mm 3 mps 736 mmHg 48%
    17:00 +30°C° 0 mm 3 mps 736 mmHg 51%
    18:00 +29°C° 0 mm 3 mps 736 mmHg 56%
    19:00 +29°C° 0 mm 2 mps 736 mmHg 61%
    20:00 +28°C° 0 mm 2 mps 736 mmHg 66%
    21:00 +27°C° 0 mm 2 mps 736 mmHg 70%
    22:00 +27°C° 0 mm 2 mps 736 mmHg 73%
    23:00 +26°C° 0 mm 2 mps 736 mmHg 76%
    Show more